This is the latest recevied weather packets stored in our database for station/object SV6LWW-11. If no packets are shown the sender has not sent any weather packets the latest 10 day(s).
| Time | Temp. | Humidity | Pressure | Rain* | Wind** | Luminosity | Snow |
|---|---|---|---|---|---|---|---|
| 1777769965 | 20.56° C | 57% | 1024.7 hPa | - | - | - | - |
| 1777769065 | 20.56° C | 57% | 1024.6 hPa | - | - | - | - |
| 1777768165 | 20.56° C | 57% | 1025 hPa | - | - | - | - |
| 1777767264 | 20.56° C | 57% | 1025.1 hPa | - | - | - | - |
| 1777766364 | 20.56° C | 57% | 1025.1 hPa | - | - | - | - |
| 1777765464 | 20.56° C | 57% | 1025.1 hPa | - | - | - | - |
| 1777764564 | 20.56° C | 56% | 1025 hPa | - | - | - | - |
| 1777763664 | 21.11° C | 56% | 1025.3 hPa | - | - | - | - |
| 1777762763 | 21.11° C | 55% | 1025.3 hPa | - | - | - | - |
| 1777761863 | 21.11° C | 55% | 1025.4 hPa | - | - | - | - |
| 1777760962 | 21.11° C | 55% | 1025.7 hPa | - | - | - | - |
| 1777760063 | 21.11° C | 55% | 1025.6 hPa | - | - | - | - |
| 1777759163 | 21.11° C | 54% | 1025.5 hPa | - | - | - | - |
| 1777758263 | 21.67° C | 55% | 1025.6 hPa | - | - | - | - |
| 1777757363 | 21.67° C | 54% | 1025.7 hPa | - | - | - | - |
| 1777756462 | 22.22° C | 54% | 1025.7 hPa | - | - | - | - |
| 1777755562 | 22.22° C | 54% | 1025.8 hPa | - | - | - | - |
| 1777754662 | 22.22° C | 54% | 1025.8 hPa | - | - | - | - |
| 1777753762 | 21.67° C | 55% | 1025.8 hPa | - | - | - | - |
| 1777752861 | 21.67° C | 54% | 1025.9 hPa | - | - | - | - |
| 1777751961 | 21.67° C | 55% | 1025.9 hPa | - | - | - | - |
| 1777751061 | 21.67° C | 56% | 1025.7 hPa | - | - | - | - |
| 1777750161 | 21.67° C | 57% | 1025.5 hPa | - | - | - | - |
| 1777749261 | 21.67° C | 58% | 1025.2 hPa | - | - | - | - |
| 1777748361 | 21.11° C | 57% | 1025.2 hPa | - | - | - | - |
* Rain since midnight (hover to see other rain measurements)
** Current wind speed in m/s (hover to see current wind gust speed)